TimeEDT,TemperatureF,Dew PointF,Humidity,Sea Level PressureIn,VisibilityMPH,Wind Direction,Wind SpeedMPH,Gust SpeedMPH,PrecipitationIn,Events,Conditions,WindDirDegrees,DateUTC
12:53 AM,71.1,68.0,90,29.87,7.0,SE,4.6,-,N/A,,Clear,130,2012-09-05 04:53:00
1:53 AM,70.0,68.0,93,29.87,5.0,South,5.8,-,N/A,,Clear,170,2012-09-05 05:53:00
2:53 AM,72.0,69.1,91,29.87,7.0,Calm,Calm,-,N/A,,Mostly Cloudy,0,2012-09-05 06:53:00
3:53 AM,71.1,68.0,90,29.86,6.0,Calm,Calm,-,N/A,,Clear,0,2012-09-05 07:53:00
4:53 AM,70.0,68.0,93,29.84,5.0,East,3.5,-,N/A,,Clear,90,2012-09-05 08:53:00
5:53 AM,70.0,68.0,93,29.85,5.0,ESE,3.5,-,N/A,,Overcast,110,2012-09-05 09:53:00
6:53 AM,70.0,68.0,93,29.84,4.0,Calm,Calm,-,0.00,,Overcast,0,2012-09-05 10:53:00
7:53 AM,69.1,66.9,93,29.85,3.0,Calm,Calm,-,N/A,,Mostly Cloudy,0,2012-09-05 11:53:00
8:06 AM,69.8,68.0,94,29.87,2.5,East,3.5,-,N/A,,Mostly Cloudy,100,2012-09-05 12:06:00
8:24 AM,71.6,68.0,88,29.87,4.0,ESE,3.5,-,N/A,,Mostly Cloudy,120,2012-09-05 12:24:00
8:53 AM,71.1,68.0,90,29.86,4.0,SSE,4.6,-,N/A,,Mostly Cloudy,160,2012-09-05 12:53:00
9:53 AM,73.0,69.1,87,29.86,6.0,SSW,4.6,-,N/A,,Mostly Cloudy,210,2012-09-05 13:53:00
10:53 AM,75.9,69.1,79,29.86,7.0,WSW,12.7,-,N/A,,Mostly Cloudy,250,2012-09-05 14:53:00
11:53 AM,75.9,68.0,76,29.83,10.0,SW,11.5,-,N/A,,Mostly Cloudy,220,2012-09-05 15:53:00
12:53 PM,75.9,68.0,76,29.76,10.0,ENE,4.6,-,N/A,,Mostly Cloudy,70,2012-09-05 16:53:00
1:53 PM,80.1,66.9,64,29.79,10.0,SSE,8.1,-,N/A,,Mostly Cloudy,160,2012-09-05 17:53:00
2:53 PM,82.0,66.0,58,29.79,10.0,SSE,10.4,-,N/A,,Scattered Clouds,160,2012-09-05 18:53:00
3:53 PM,82.9,63.0,51,29.76,10.0,SSW,9.2,-,N/A,,Mostly Cloudy,200,2012-09-05 19:53:00
4:53 PM,82.9,64.9,54,29.76,10.0,SSW,9.2,-,N/A,,Mostly Cloudy,210,2012-09-05 20:53:00
5:53 PM,81.0,61.0,50,29.77,10.0,West,12.7,20.7,N/A,,Mostly Cloudy,260,2012-09-05 21:53:00
6:53 PM,79.0,61.0,54,29.79,10.0,WSW,15.0,-,N/A,,Mostly Cloudy,250,2012-09-05 22:53:00
7:53 PM,77.0,63.0,62,29.79,10.0,WSW,12.7,-,N/A,,Scattered Clouds,240,2012-09-05 23:53:00
8:53 PM,73.0,64.9,76,29.81,10.0,West,4.6,-,N/A,,Scattered Clouds,270,2012-09-06 00:53:00
9:53 PM,73.0,64.0,73,29.83,10.0,WNW,4.6,-,N/A,,Clear,290,2012-09-06 01:53:00
10:53 PM,72.0,63.0,73,29.82,10.0,West,4.6,-,N/A,,Clear,270,2012-09-06 02:53:00
11:53 PM,70.0,63.0,78,29.82,10.0,Calm,Calm,-,N/A,,Clear,0,2012-09-06 03:53:00